User: anonymous   Login
Location: Petruro
(41.0333°N, 14.7833°E)
Time: 18:33:17
(UTC+00:00)
Language:

Meteor 2-6 Rocket - Orbit

View from above orbital plane
View from above orbital plane
View from above satellite
View from above satellite

Ground track
Ground track

The orbit data is extracted from the following two-line orbital elements,

1 11963U 80073B   21262.92624879 -.00000195  00000-0 -11510-3 0  9996
2 11963  81.2762  56.3849 0075415 354.2044   5.8245 14.09739596109712
Epoch (UTC): 19 September 2021 22:13:47
Eccentricity: 0.0075415
inclination: 81.2762°
perigee height: 805 km
apogee height: 915 km
right ascension of ascending node: 56.3849°
argument of perigee: 354.2044°
revolutions per day: 14.09739596
mean anomaly at epoch: 5.8245°
orbit number at epoch: 10971

The dashed part of the orbit path shows where the satellite is in the earth's shadow,  

DLR